Weather History for KGBD - February, 2014

Change the Weather History Date:

Sunday, February 23, 2014

  Actual Average Record
Temperature  
Mean Temperature 28 °F -  
Max Temperature 35 °F 51 °F 35 °F (2014)
Min Temperature 19 °F 28 °F 12 °F (2015)
Degree Days  
Heating Degree Days 37    
Moisture  
Dew Point 18 °F    
Average Humidity 65    
Maximum Humidity 80    
Minimum Humidity 52    
Precipitation  
Precipitation 0.00 in - - ()
Sea Level Pressure  
Sea Level Pressure 30.22 in    
Wind  
Wind Speed 14 mph (NE)    
Max Wind Speed 22 mph    
Max Gust Speed 25 mph    
Visibility 10 miles    
Events      
Averages and records for this station are not official NWS values.
T = Trace of Precipitation, MM = Missing Value Source: NWS Daily Summary

Daily Weather History Graph

Daily Weather History Graph

Search for Another Location

Airport or City:

Trip Planner

Search our weather history database for the weather conditions in past years. The results will help you decide how hot, cold, wet, or windy it might be!

Date:

Astronomy

Feb. 23, 2014 Rise Set
Actual Time 7:15 AM CST 6:22 PM CST
Civil Twilight 6:48 AM CST 6:49 PM CST
Nautical Twilight 6:18 AM CST 7:19 PM CST
Astronomical Twilight 5:47 AM CST 7:50 PM CST
Moon 2:13 AM CST (2/23) 12:28 PM CST (2/23)
Length of Visible Light 12h 00m
Length of Day
11h 06m
Last Quarter, 38% of the Moon is Illuminated
Feb 23
Last Quarter
Mar 1
New
Mar 8
First Quarter
Mar 16
Full
Mar 23
Last Quarter

Hourly Weather History & Observations

Time (CST) Temp. Windchill Dew Point Humidity Pressure Visibility Wind Dir Wind Speed Gust Speed Precip Events Conditions
12:15 AM 32.0 °F 20.5 °F 24.8 °F 75% 30.05 in 10.0 mi ENE 18.4 mph - N/A   Clear
12:35 AM 32.0 °F 20.5 °F 24.8 °F 75% 30.05 in 10.0 mi ENE 18.4 mph 25.3 mph N/A   Clear
12:55 AM 32.0 °F 20.8 °F 23.0 °F 69% 30.05 in 10.0 mi ENE 17.3 mph 24.2 mph N/A   Clear
1:15 AM 32.0 °F 19.5 °F 21.2 °F 64% 30.06 in 10.0 mi ENE 21.9 mph - N/A   Clear
1:35 AM 30.2 °F 18.9 °F 21.2 °F 69% 30.08 in 10.0 mi ENE 16.1 mph - N/A   Clear
1:55 AM 30.2 °F 18.5 °F 19.4 °F 64% 30.08 in 10.0 mi ENE 17.3 mph 24.2 mph N/A   Partly Cloudy
2:15 AM 30.2 °F 20.2 °F 19.4 °F 64% 30.10 in 10.0 mi NE 12.7 mph 23.0 mph N/A   Mostly Cloudy
2:35 AM 30.2 °F 18.1 °F 19.4 °F 64% 30.10 in 10.0 mi NE 18.4 mph - N/A   Overcast
2:55 AM 28.4 °F 17.5 °F 19.4 °F 69% 30.09 in 10.0 mi ENE 13.8 mph 24.2 mph N/A   Scattered Clouds
3:15 AM 28.4 °F 16.6 °F 19.4 °F 69% 30.10 in 10.0 mi NE 16.1 mph - N/A   Clear
3:35 AM 28.4 °F 16.2 °F 17.6 °F 64% 30.10 in 10.0 mi NE 17.3 mph 21.9 mph N/A   Clear
3:55 AM 26.6 °F 14.3 °F 17.6 °F 69% 30.11 in 10.0 mi NE 16.1 mph 23.0 mph N/A   Clear
4:15 AM 26.6 °F 14.3 °F 17.6 °F 69% 30.12 in 10.0 mi ENE 16.1 mph - N/A   Clear
4:35 AM 26.6 °F 15.7 °F 17.6 °F 69% 30.14 in 10.0 mi NE 12.7 mph - N/A   Clear
4:55 AM 26.6 °F 15.7 °F 17.6 °F 69% 30.14 in 10.0 mi NE 12.7 mph - N/A   Partly Cloudy
5:15 AM 26.6 °F 16.8 °F 17.6 °F 69% 30.14 in 10.0 mi NE 10.4 mph - N/A   Mostly Cloudy
5:35 AM 26.6 °F 16.8 °F 17.6 °F 69% 30.16 in 10.0 mi NNE 10.4 mph - N/A   Overcast
5:55 AM 26.6 °F 17.5 °F 19.4 °F 74% 30.16 in 10.0 mi NE 9.2 mph - N/A   Overcast
6:15 AM 26.6 °F 15.7 °F 21.2 °F 80% 30.17 in 10.0 mi NE 12.7 mph - N/A   Overcast
6:35 AM 28.4 °F 17.5 °F 21.2 °F 74% 30.17 in 10.0 mi NE 13.8 mph - N/A   Overcast
6:55 AM 26.6 °F 15.2 °F 19.4 °F 74% 30.17 in 10.0 mi NE 13.8 mph - N/A   Overcast
7:15 AM 26.6 °F 16.2 °F 19.4 °F 74% 30.18 in 10.0 mi ENE 11.5 mph - N/A   Overcast
7:35 AM 26.6 °F 15.7 °F 19.4 °F 74% 30.19 in 10.0 mi ENE 12.7 mph - N/A   Overcast
7:55 AM 26.6 °F 14.7 °F 19.4 °F 74% 30.20 in 10.0 mi NE 15.0 mph - N/A   Overcast
8:15 AM 26.6 °F 14.7 °F 19.4 °F 74% 30.22 in 10.0 mi NE 15.0 mph - N/A   Overcast
8:35 AM 26.6 °F 13.8 °F 19.4 °F 74% 30.24 in 10.0 mi NNE 17.3 mph 20.7 mph N/A   Overcast
8:55 AM 26.6 °F 13.8 °F 19.4 °F 74% 30.25 in 10.0 mi NNE 17.3 mph - N/A   Overcast
9:15 AM 26.6 °F 14.3 °F 19.4 °F 74% 30.26 in 10.0 mi NE 16.1 mph 21.9 mph N/A   Overcast
9:35 AM 26.6 °F 15.2 °F 19.4 °F 74% 30.27 in 10.0 mi NNE 13.8 mph - N/A   Overcast
9:55 AM 26.6 °F 14.3 °F 19.4 °F 74% 30.28 in 10.0 mi NNE 16.1 mph 20.7 mph N/A   Overcast
10:15 AM 26.6 °F 13.8 °F 19.4 °F 74% 30.28 in 10.0 mi NNE 17.3 mph - N/A   Overcast
10:35 AM 26.6 °F 13.8 °F 19.4 °F 74% 30.29 in 10.0 mi NE 17.3 mph - N/A   Overcast
10:55 AM 26.6 °F 14.3 °F 19.4 °F 74% 30.29 in 10.0 mi NE 16.1 mph - N/A   Overcast
11:15 AM 28.4 °F 17.0 °F 19.4 °F 69% 30.28 in 10.0 mi NE 15.0 mph - N/A   Overcast
11:35 AM 28.4 °F 17.5 °F 19.4 °F 69% 30.28 in 10.0 mi NE 13.8 mph - N/A   Overcast
11:55 AM 26.6 °F 14.7 °F 19.4 °F 74% 30.29 in 10.0 mi NNE 15.0 mph - N/A   Overcast
12:15 PM 28.4 °F 18.0 °F 19.4 °F 69% 30.29 in 10.0 mi NNE 12.7 mph - N/A   Overcast
12:35 PM 30.2 °F 19.8 °F 19.4 °F 64% 30.29 in 10.0 mi NNE 13.8 mph - N/A   Overcast
12:55 PM 30.2 °F 20.8 °F 19.4 °F 64% 30.27 in 10.0 mi ENE 11.5 mph - N/A   Overcast
1:15 PM 30.2 °F 19.3 °F 19.4 °F 64% 30.27 in 10.0 mi NE 15.0 mph - N/A   Overcast
1:35 PM 32.0 °F 24.2 °F 19.4 °F 60% 30.26 in 10.0 mi NE 9.2 mph 17.3 mph N/A   Overcast
1:55 PM 33.8 °F 26.4 °F 19.4 °F 56% 30.26 in 10.0 mi ENE 9.2 mph - N/A   Mostly Cloudy
2:15 PM 33.8 °F 24.8 °F 19.4 °F 56% 30.25 in 10.0 mi ENE 12.7 mph - N/A   Mostly Cloudy
2:35 PM 35.6 °F 27.1 °F 19.4 °F 52% 30.25 in 10.0 mi NE 12.7 mph 17.3 mph N/A   Overcast
2:55 PM 35.6 °F 27.1 °F 19.4 °F 52% 30.25 in 10.0 mi NE 12.7 mph 18.4 mph N/A   Overcast
3:15 PM 33.8 °F 25.3 °F 19.4 °F 56% 30.24 in 10.0 mi ENE 11.5 mph - N/A   Mostly Cloudy
3:35 PM 35.6 °F 27.5 °F 19.4 °F 52% 30.23 in 10.0 mi NE 11.5 mph - N/A   Mostly Cloudy
3:55 PM 35.6 °F 28.6 °F 19.4 °F 52% 30.23 in 10.0 mi NE 9.2 mph - N/A   Partly Cloudy
4:15 PM 35.6 °F 27.1 °F 19.4 °F 52% 30.24 in 10.0 mi NE 12.7 mph - N/A   Clear
4:35 PM 33.8 °F 24.3 °F 19.4 °F 56% 30.24 in 10.0 mi NNE 13.8 mph - N/A   Clear
4:55 PM 35.6 °F 27.1 °F 19.4 °F 52% 30.24 in 10.0 mi NE 12.7 mph - N/A   Clear
5:15 PM 33.8 °F 24.3 °F 19.4 °F 56% 30.24 in 10.0 mi NE 13.8 mph - N/A   Clear
5:35 PM 33.8 °F 25.3 °F 19.4 °F 56% 30.24 in 10.0 mi NE 11.5 mph - N/A   Clear
5:55 PM 32.0 °F 21.6 °F 17.6 °F 55% 30.24 in 10.0 mi NE 15.0 mph - N/A   Clear
6:15 PM 30.2 °F 20.2 °F 17.6 °F 60% 30.25 in 10.0 mi ENE 12.7 mph - N/A   Partly Cloudy
6:35 PM 30.2 °F 21.9 °F 17.6 °F 60% 30.25 in 10.0 mi ENE 9.2 mph - N/A   Partly Cloudy
6:55 PM 28.4 °F 19.1 °F 17.6 °F 64% 30.26 in 10.0 mi ENE 10.4 mph - N/A   Clear
7:15 PM 28.4 °F 19.1 °F 15.8 °F 59% 30.26 in 10.0 mi ENE 10.4 mph - N/A   Clear
7:35 PM 28.4 °F 19.7 °F 15.8 °F 59% 30.27 in 10.0 mi ENE 9.2 mph - N/A   Clear
7:55 PM 26.6 °F 17.5 °F 15.8 °F 64% 30.27 in 10.0 mi ENE 9.2 mph - N/A   Partly Cloudy
8:15 PM 26.6 °F 17.5 °F 14.0 °F 59% 30.27 in 10.0 mi ENE 9.2 mph - N/A   Clear
8:35 PM 26.6 °F 16.8 °F 12.2 °F 55% 30.28 in 10.0 mi ENE 10.4 mph - N/A   Clear
8:55 PM 26.6 °F 16.2 °F 14.0 °F 59% 30.28 in 10.0 mi ENE 11.5 mph - N/A   Scattered Clouds
9:15 PM 24.8 °F 16.9 °F 14.0 °F 64% 30.28 in 10.0 mi ENE 6.9 mph - N/A   Partly Cloudy
9:35 PM 24.8 °F 15.3 °F 12.2 °F 59% 30.28 in 10.0 mi ENE 9.2 mph - N/A   Clear
9:55 PM 24.8 °F 16.1 °F 12.2 °F 59% 30.28 in 10.0 mi ENE 8.1 mph - N/A   Clear
10:15 PM 24.8 °F 16.1 °F 12.2 °F 59% 30.29 in 10.0 mi ENE 8.1 mph - N/A   Clear
10:35 PM 23.0 °F 13.9 °F 12.2 °F 63% 30.29 in 10.0 mi NE 8.1 mph - N/A   Clear
10:55 PM 23.0 °F 13.9 °F 10.4 °F 59% 30.29 in 10.0 mi NE 8.1 mph - N/A   Clear
11:15 PM 21.2 °F 11.7 °F 12.2 °F 68% 30.28 in 10.0 mi NE 8.1 mph - N/A   Clear
11:35 PM 21.2 °F 12.6 °F 12.2 °F 68% 30.29 in 10.0 mi NE 6.9 mph - N/A   Clear
11:55 PM 19.4 °F 11.5 °F 12.2 °F 74% 30.28 in 10.0 mi NE 5.8 mph - N/A   Clear